Regional Weather Roundup
Issued by NWS Cleveland, OH

Home | Current Version | Previous Version | Graphics & Text | Print | Product List | Glossary On
Versions: 1 2 3 4 5 6 7 8 9 10 11 12 13 14 15 16 17 18 19 20 21 22 23 24 25 26 27 28 29 30 31 32 33 34 35 36 37 38 39 40 41 42 43 44 45 46 47 48 49 50
000
ASUS41 KCLE 191700
RWRCLE
OHIO REGIONAL WEATHER ROUNDUP
NATIONAL WEATHER SERVICE WILMINGTON, OH
1200 PM EST THU JAN 19 2017

NOTE: "FAIR" INDICATES FEW OR NO CLOUDS BELOW 12,000 FEET WITH NO
SIGNIFICANT WEATHER AND/OR OBSTRUCTIONS TO VISIBILITY.

OHZ001>008-015>018-024>027-034-035-043-044-191800-
   NORTHWEST OHIO

CITY           SKY/WX    TMP DP  RH WIND       PRES   REMARKS
DEFIANCE       CLOUDY    36  32  85 E5        30.04F
FINDLAY        CLOUDY    38  33  82 S6        30.04F
TOLEDO EXPRESS CLOUDY    35  34  96 SE5       30.06F
TOLEDO EXEC    CLOUDY    37  34  89 S5        30.07F FOG
LIMA           CLOUDY    37  36  96 SE6       30.02F
$$

OHZ009>014-019>023-028>033-038-089-191800-
   NORTHEAST OHIO

CITY           SKY/WX    TMP DP  RH WIND       PRES   REMARKS
CLE-HOPKINS    CLOUDY    41  34  76 SW7       30.10F
CLE-LAKEFRONT  CLOUDY    37  33  85 N3        30.07F
CUY CO. ARPT   CLOUDY    41  36  81 MISG      30.07F
LORAIN-ELYRIA  CLOUDY    37  32  82 W6        30.08F
ASHTABULA      CLOUDY    37  34  89 S7        30.07F
AKRON-CANTON   CLOUDY    39  34  82 S7        30.06F
WOOSTER        NOT AVBL
MANSFIELD      CLOUDY    38  36  92 SE6       30.04F FOG
YOUNGSTOWN     CLOUDY    38  33  82 SW3       30.06F
$$

OHZ042-051>053-060>062-070>072-077>081-191800-
  SOUTHWEST OHIO

CITY           SKY/WX    TMP DP  RH WIND       PRES   REMARKS
CINC-COVINGTON CLOUDY    45  39  79 E7        30.00F
CINC-LUNKEN    FAIR      46  40  79 CALM      30.03F
HAMILTON       FAIR      45  39  79 E3        30.04F
DAYTON         NOT AVBL
WRIGHT-PAT AFB NOT AVBL
DAYTON GENERAL FAIR      43  38  82 E6        30.01F
WILMINGTON     FAIR      43  39  86 E7        30.02F
$$

OHZ036-037-039>041-045>050-054>059-063>069-073>076-082>088-191800-
  CENTRAL AND SOUTHEAST OHIO

CITY           SKY/WX    TMP DP  RH WIND       PRES   REMARKS
COLUMBUS       CLOUDY    41  36  82 SE3       30.06F
OSU AIRPORT    CLOUDY    39  37  92 S3        30.05F
BOLTON FIELD   CLOUDY    39  37  93 CALM      30.06F
RICKENBACK AFB NOT AVBL
NEWARK         CLOUDY    40  35  83 VRB5      30.05F
MARION         CLOUDY    39  35  86 SW7       30.06F
LANCASTER      CLOUDY    42  37  82 E7        30.06F
ZANESVILLE     CLOUDY    40  35  83 S3        30.07F
NEW PHILLY     CLOUDY    39  36  89 S7        30.08F
$$




USA.gov is the U.S. government's official web portal to all federal, state and local government web resources and services.